| time (UTC) | temp F | wind direction | speed MPH | gust MPH | rain 1hr in | rain 24hr in | rain mn in | humidity % | barometer mb |
| 20260504234549 | 48 | 321 | 0.0 | 0.0 | 0.00 | 0.00 | 0.00 | 93 | 1011.7 |
| 20260504233053 | 48 | 321 | 0.0 | 0.0 | 0.00 | 0.00 | 0.00 | 93 | 1011.9 |
| 20260504231549 | 49 | 320 | 0.0 | 0.0 | 0.00 | 0.00 | 0.00 | 93 | 1011.7 |
| 20260504230049 | 49 | 321 | 0.0 | 0.0 | 0.00 | 0.00 | 0.00 | 93 | 1011.7 |
| 20260504224549 | 49 | 221 | 0.0 | 0.0 | 0.00 | 0.00 | 0.00 | 93 | 1011.9 |
| 20260504223048 | 49 | 221 | 0.0 | 0.0 | 0.00 | 0.00 | 0.00 | 93 | 1011.9 |
| 20260504221547 | 49 | 221 | 0.0 | 0.0 | 0.00 | 0.00 | 0.00 | 92 | 1011.8 |
| 20260504220108 | 50 | 221 | 0.0 | 0.0 | 0.00 | 0.00 | 0.00 | 92 | 1011.8 |
| 20260504214552 | 50 | 221 | 0.0 | 1.0 | 0.00 | 0.00 | 0.00 | 92 | 1011.9 |
| 20260504213052 | 50 | 225 | 0.0 | 0.0 | 0.00 | 0.00 | 0.00 | 93 | 1011.7 |
| 20260504211545 | 50 | 225 | 0.0 | 1.0 | 0.00 | 0.00 | 0.00 | 93 | 1011.7 |
| 20260504210045 | 50 | 225 | 0.0 | 0.0 | 0.00 | 0.00 | 0.00 | 93 | 1011.7 |
| 20260504204544 | 49 | 225 | 0.0 | 1.0 | 0.00 | 0.00 | 0.00 | 92 | 1011.7 |
| 20260504203044 | 49 | 225 | 0.0 | 1.0 | 0.00 | 0.00 | 0.00 | 93 | 1011.6 |
| 20260504201544 | 50 | 223 | 0.0 | 1.0 | 0.00 | 0.00 | 0.00 | 93 | 1011.5 |
| 20260504200049 | 50 | 248 | 0.0 | 1.0 | 0.00 | 0.00 | 0.00 | 93 | 1011.4 |
| 20260504194546 | 49 | 248 | 0.0 | 0.0 | 0.00 | 0.01 | 0.00 | 93 | 1011.4 |
| 20260504193043 | 49 | 249 | 0.0 | 0.0 | 0.00 | 0.01 | 0.00 | 92 | 1011.5 |
| 20260504191552 | 49 | 248 | 0.0 | 1.0 | 0.00 | 0.01 | 0.00 | 93 | 1011.8 |
| 20260504190049 | 49 | 248 | 0.0 | 0.0 | 0.00 | 0.01 | 0.00 | 92 | 1011.7 |
| 20260504184552 | 49 | 248 | 0.0 | 0.0 | 0.00 | 0.01 | 0.00 | 92 | 1011.8 |
| 20260504183048 | 49 | 248 | 0.0 | 0.0 | 0.00 | 0.01 | 0.00 | 92 | 1011.8 |
| 20260504181546 | 49 | 248 | 0.0 | 0.0 | 0.00 | 0.01 | 0.00 | 92 | 1011.9 |
| 20260504180039 | 49 | 248 | 0.0 | 1.0 | 0.00 | 0.01 | 0.00 | 92 | 1011.7 |
| 20260504174537 | 49 | 248 | 0.0 | 0.0 | 0.00 | 0.02 | 0.00 | 92 | 1011.5 |
| 20260504173036 | 49 | 248 | 0.0 | 1.0 | 0.00 | 0.02 | 0.00 | 92 | 1011.5 |
| 20260504171535 | 49 | 250 | 0.0 | 0.0 | 0.00 | 0.02 | 0.00 | 92 | 1011.3 |
| 20260504130135 | 48 | 214 | 0.0 | 0.0 | 0.00 | 0.02 | 0.00 | 90 | 1010.1 |
| 20260504081557 | 51 | 187 | 0.0 | 0.0 | 0.00 | 0.02 | 0.00 | 85 | 1010.2 |
| 20260504044547 | 53 | 233 | 0.0 | 1.0 | 0.00 | 0.02 | 0.02 | 80 | 1009.9 |
| 20260504043040 | 53 | 233 | 0.0 | 1.0 | 0.00 | 0.02 | 0.02 | 79 | 1009.8 |
| 20260504041538 | 54 | 212 | 0.0 | 2.0 | 0.00 | 0.02 | 0.02 | 79 | 1009.5 |
| 20260504040044 | 54 | 196 | 0.0 | 1.0 | 0.00 | 0.02 | 0.02 | 79 | 1009.3 |
| 20260504034553 | 55 | 200 | 0.0 | 1.0 | 0.00 | 0.02 | 0.02 | 81 | 1009.1 |
| 20260504033033 | 55 | 235 | 0.0 | 1.0 | 0.00 | 0.02 | 0.02 | 84 | 1008.8 |
| 20260504031532 | 55 | 236 | 0.0 | 0.0 | 0.00 | 0.02 | 0.02 | 82 | 1008.8 |
| 20260504030041 | 55 | 236 | 0.0 | 0.0 | 0.00 | 0.02 | 0.02 | 80 | 1008.5 |
| 20260504023059 | 56 | 236 | 0.0 | 0.0 | 0.00 | 0.02 | 0.02 | 80 | 1008.4 |
| 20260504021544 | 56 | 203 | 0.0 | 0.0 | 0.00 | 0.02 | 0.02 | 80 | 1008.1 |
| 20260504020047 | 56 | 203 | 0.0 | 0.0 | 0.00 | 0.02 | 0.02 | 79 | 1008.1 |
| 20260504014549 | 56 | 200 | 0.0 | 1.0 | 0.00 | 0.02 | 0.02 | 79 | 1008.0 |
| 20260504013047 | 57 | 289 | 0.0 | 1.0 | 0.00 | 0.02 | 0.02 | 78 | 1007.9 |
| 20260504011544 | 57 | 248 | 0.0 | 0.0 | 0.00 | 0.02 | 0.02 | 77 | 1007.8 |
| 20260504010051 | 58 | 204 | 0.0 | 1.0 | 0.00 | 0.02 | 0.02 | 76 | 1007.8 |
| 20260504004557 | 58 | 216 | 0.0 | 1.0 | 0.00 | 0.02 | 0.02 | 75 | 1007.9 |
| 20260504003041 | 59 | 245 | 0.0 | 3.0 | 0.00 | 0.02 | 0.02 | 74 | 1007.7 |
| 20260504001541 | 58 | 291 | 0.0 | 2.0 | 0.00 | 0.02 | 0.02 | 76 | 1007.6 |
| 20260504000041 | 57 | 315 | 0.0 | 1.0 | 0.00 | 0.02 | 0.02 | 77 | 1007.6 |